This is the latest recevied weather packets stored in our database for station/object K5NOC-12. If no packets are shown the sender has not sent any weather packets the latest 10 day(s).
| Time | Temp. | Humidity | Pressure | Rain* | Wind** | Luminosity | Snow |
|---|---|---|---|---|---|---|---|
| 1787885320 | 25.56° C | 50% | 1022.3 hPa | 0 mm | - | - | - |
| 1787884420 | 26.11° C | 49% | 1022.2 hPa | 0 mm | - | - | - |
| 1787883520 | 26.67° C | 47% | 1021.8 hPa | 0 mm | - | - | - |
| 1787882620 | 26.67° C | 46% | 1021.7 hPa | 0 mm | - | - | - |
| 1787881720 | 27.22° C | 46% | 1021.5 hPa | 0 mm | - | - | - |
| 1787880820 | 27.78° C | 45% | 1021.2 hPa | 0 mm | - | - | - |
| 1787879919 | 28.33° C | 44% | 1020.7 hPa | 0 mm | - | - | - |
| 1787879020 | 28.89° C | 42% | 1020.6 hPa | 0 mm | - | - | - |
| 1787878119 | 30° C | 41% | 1020.4 hPa | 0 mm | - | - | - |
| 1787877219 | 30.56° C | 41% | 1020.4 hPa | 0 mm | - | - | - |
| 1787876319 | 30.56° C | 40% | 1020.4 hPa | 0 mm | - | - | - |
| 1787875419 | 31.11° C | 39% | 1020.4 hPa | 0 mm | - | - | - |
| 1787874519 | 31.67° C | 39% | 1020.5 hPa | 0 mm | - | - | - |
| 1787873620 | 32.22° C | 38% | 1020.4 hPa | 0 mm | - | - | - |
| 1787872719 | 32.22° C | 37% | 1020.4 hPa | 0 mm | - | - | - |
| 1787871819 | 31.67° C | 36% | 1020.4 hPa | 0 mm | - | - | - |
| 1787870918 | 32.78° C | 36% | 1020.5 hPa | 0 mm | - | - | - |
| 1787870018 | 32.22° C | 36% | 1020.6 hPa | 0 mm | - | - | - |
| 1787869118 | 32.78° C | 35% | 1020.8 hPa | 0 mm | - | - | - |
| 1787868218 | 32.78° C | 36% | 1021 hPa | 0 mm | - | - | - |
| 1787867318 | 32.22° C | 37% | 1021.1 hPa | 0 mm | - | - | - |
| 1787866418 | 32.22° C | 37% | 1021.4 hPa | 0 mm | - | - | - |
| 1787865518 | 32.22° C | 38% | 1021.8 hPa | 0 mm | - | - | - |
| 1787864617 | 31.11° C | 39% | 1021.9 hPa | 0 mm | - | - | - |
| 1787863717 | 31.67° C | 39% | 1022.1 hPa | 0 mm | - | - | - |
* Rain latest hour (hover to see other rain measurements)
** Current wind speed in m/s (hover to see current wind gust speed)